Regional Weather Roundup
Issued by NWS

Home | Current Version | Previous Version | Graphics & Text | Print | Product List | Glossary On
Versions: 1 2 3 4 5 6 7 8 9 10 11 12 13 14 15 16 17 18 19 20 21 22 23 24 25 26 27
000
ASUS45 KBOU 231707
RWRCO

WEATHER ROUNDUP FOR COLORADO
NATIONAL WEATHER SERVICE DENVER/BOULDER CO
1100 AM MDT FRI JUN 23 2017

NOTE: "FAIR" INDICATES FEW OR NO CLOUDS BELOW 12000 FEET WITH NO
SIGNIFICANT WEATHER AND/OR OBSTRUCTIONS TO VISIBILITY.

COZ001>005-013-030-031-231800-
...NORTHWEST COLORADO...

CITY           SKY/WX    TMP DP  RH WIND       PRES   REMARKS
CRAIG          FAIR      68  35  29 VRB3      30.25F
HAYDEN         FAIR      64  36  34 W6        30.26F
MEEKER         FAIR      66  43  43 VRB3      30.24F
RABBIT EARS PA FAIR      52  32  46 W7        30.46S
STEAMBOAT SPGS FAIR      63  40  42 CALM      30.26F
WALDEN         FAIR      61  34  36 SW5       30.32F
$$

COZ006>008-011-231800-
...WEST CENTRAL VALLEYS...

CITY           SKY/WX    TMP DP  RH WIND       PRES   REMARKS
GRAND JUNCTION FAIR      83  35  18 W8        30.10F
MONTROSE       FAIR      76  32  20 N5        30.18F
EAGLE          SUNNY     72  34  25 CALM      30.22F
RIFLE          FAIR      76  31  19 CALM      30.15F
DELTA          FAIR      82  34  18 S3        30.14S
NUCLA          FAIR      79  27  14 CALM      30.21F
$$

COZ017>023-064>068-231800-
...SOUTHWEST COLORADO...

CITY           SKY/WX    TMP DP  RH WIND       PRES   REMARKS
DURANGO        FAIR      83  19   9 W8        30.16F
CORTEZ         FAIR      85  28  12 N7        30.14F
PAGOSA SPRINGS FAIR      78  20  11 SW6       30.24S
TELLURIDE      NOT AVBL
WOLF CREEK PAS FAIR      59  12  15 W6        30.61S
$$

COZ009-010-012-014-032>034-037-058>063-231800-
...CENTRAL COLORADO...

CITY           SKY/WX    TMP DP  RH WIND       PRES   REMARKS
ASPEN          FAIR      70  33  25 NW8       30.27S
BUENA VISTA    FAIR      68  43  40 SE14      30.30F
COPPER MTN     FAIR      59  21  23 NW13G25   30.54F
BERTHOUD PASS  FAIR      46  34  61 W22G37    30.55R
COTTONWOOD PAS FAIR      64  43  45 SE10G23   30.42S
GUNNISON       FAIR      68  36  30 SW7       30.27F
KREMMLING      NOT AVBL
LEADVILLE      FAIR      62  31  31 SW8       30.38F
MONARCH PASS   FAIR      55  32  41 SW5       30.67S
SALIDA         FAIR      69  49  49 E18G25    30.36F
SUNLIGHT       FAIR      55  30  38 W3        30.52S
WILKERSON PASS FOG       45  41  87 SW8       30.53S VSB 3/4
$$

COZ069>075-231800-
...SAN LUIS VALLEY/SANGRE DE CRISTO MOUNTAINS...

CITY           SKY/WX    TMP DP  RH WIND       PRES   REMARKS
ALAMOSA        FAIR      74  47  38 SE12G20   30.24S
DEL NORTE      FAIR      72  36  27 SE7       30.28S
LA VETA PASS   LGT RAIN  45  43  93 NE16G28   30.57S VSB 1/4
SAGUACHE       FAIR      77  32  19 S10       30.25F
$$

COZ035-036-038>040-231800-
...NORTHERN COLORADO FRONT RANGE...

CITY           SKY/WX    TMP DP  RH WIND       PRES   REMARKS
DENVER INTL AP CLOUDY    52  40  63 E6        30.31F
DMNS CITY PARK   N/A     53  43  68 E9        30.31S
AURORA         CLOUDY    51  46  83 E9        30.32F
FRONT RANGE AP CLOUDY    54  45  71 NE6       30.33S
ERIE MUNI ARPT CLOUDY    54  44  70 E6        30.31S
BOULDER MUN AP CLOUDY    52  45  76 CALM      30.30F
CENTENNIAL     CLOUDY    50  46  86 E8        30.32F
BROOMFIELD     CLOUDY    52  45  76 SE7       30.32S
FORT COLLINS   CLOUDY    58  43  57 VRB5      30.30F
LONGMONT       CLOUDY    56  43  62 E6        30.32F
$$

COZ041-046-047-076>085-087-088-231800-
...PIKES PEAK/PALMER DIVIDE AND SOUTHERN FOOTHILLS...

CITY           SKY/WX    TMP DP  RH WIND       PRES   REMARKS
COLO. SPRINGS  CLOUDY    53  43  68 N9        30.35S
A. F. ACADEMY  CLOUDY    50  43  76 NE3       30.34F
SCHRIEVER AFB  NOT AVBL
CHEYENNE MTN   NOT AVBL
ELLICOTT       CLOUDY   N/A N/A N/A NE13      30.34F
FALCON           N/A     47  43  84 NE8       30.37S
FORT CARSON    CLOUDY    51  44  76 NW8       30.34R
LIMON          CLOUDY    54  43  66 NW8       30.32S
MONUMENT HILL  CLOUDY    43  41  93 SE3       30.37F
CANON CITY     CLOUDY    55  54  94 E12       30.33S
WALSENBURG     CLOUDY    52  50  93 E5        30.36R
TRINIDAD       LGT RAIN  53  50  89 NE14      30.33R FOG
$$

COZ042>045-048>051-090-091-231800-
...NORTHEAST COLORADO...

CITY           SKY/WX    TMP DP  RH WIND       PRES   REMARKS
GREELEY ARPT   CLOUDY    60  43  53 CALM      30.30F
AKRON          CLOUDY    55  40  56 NW7       30.29R
BURLINGTON     CLOUDY    60  45  57 N14       30.26R
WRAY           CLOUDY    64  43  45 N7        30.24S
YUMA           NOT AVBL
STERLING       CLOUDY    61  43  51 NW5       30.26S
HOLYOKE        NOT AVBL
FORT MORGAN    CLOUDY    56  40  55 SW6       30.30S
$$

COZ086-089-092>099-231800-
...SOUTHEAST COLORADO...

CITY           SKY/WX    TMP DP  RH WIND       PRES   REMARKS
PUEBLO         CLOUDY    54  50  86 N13       30.32R
LA JUNTA       CLOUDY    61  49  64 NE14      30.28R
LAMAR          CLOUDY    62  46  55 NE13G23   30.23R
SPRINGFIELD      N/A     62  46  55 NE17      30.24R
$$




USA.gov is the U.S. government's official web portal to all federal, state and local government web resources and services.